DateTimeUTC,F1_A11,F1_S11,BsB_S11,BsG_S11,BsR_S11,BbsB_S11,BbsG_S11,BbsR_S11,BaB_A11,BaG_A11,BaR_A11,Tu_S11,T_S11,Uu_S11,U_S11,P_S11,T1_A11
2021-03-27T01:00:00Z,00000200,21000000,,,,,,,-000.26,-000.01,-000.30,16.5,23.9,,00.0,0631.8,30.9
2021-03-27T01:01:00Z,00000200,21000000,,,,,,,-000.26,-000.11,0000.13,16.5,23.9,,00.0,0631.8,30.8
2021-03-27T01:02:00Z,00000200,21000000,,,,,,,0000.06,-000.44,-000.03,16.4,23.9,,00.0,0631.8,30.8
2021-03-27T01:03:00Z,00000200,61000000,,,,,,,0001.70,0001.44,0001.15,16.4,23.9,,00.0,0631.8,30.8
2021-03-27T01:04:00Z,00000200,41000000,0003.41,0001.97,0001.15,0000.76,0000.37,0000.15,0001.65,0002.01,0001.40,16.4,23.5,,00.0,0632.6,30.8
2021-03-27T01:05:00Z,00000200,01000000,0002.78,0002.15,0001.20,0000.21,0000.45,0000.23,0001.76,0001.43,0001.06,16.4,23.5,,00.0,0632.7,30.8
2021-03-27T01:06:00Z,00000200,01000000,0003.09,0002.16,0001.20,0000.42,0000.40,0000.00,0001.92,0001.71,0001.29,16.5,23.5,,00.0,0632.7,30.8
2021-03-27T01:07:00Z,00000200,01000000,0003.42,0001.88,0000.96,0000.64,0000.18,0000.29,0001.02,0001.30,0001.19,16.5,23.5,,00.0,0632.7,30.9
2021-03-27T01:08:00Z,00000200,01000000,0003.21,0001.90,0001.18,0000.30,0000.44,0000.29,0001.69,0001.75,0001.09,16.5,23.5,,00.0,0632.7,30.9
2021-03-27T01:09:00Z,00000200,01000000,0003.35,0002.05,0001.17,0000.31,0000.41,0000.25,0001.86,0001.51,0001.33,16.6,23.5,,00.0,0632.7,30.9
2021-03-27T01:10:00Z,00000200,01000000,0003.79,0001.72,0001.34,0000.44,0000.29,0000.51,0001.65,0001.40,0001.15,16.6,23.5,,00.0,0632.7,30.9
2021-03-27T01:11:00Z,00000200,01000000,0003.18,0001.93,0000.93,0000.44,0000.37,0000.46,0001.53,0001.42,0000.92,16.6,23.5,,00.0,0632.7,30.9
2021-03-27T01:12:00Z,00000200,01000000,0002.66,0001.88,0001.15,0000.20,0000.45,0000.28,0001.67,0001.67,0001.44,16.7,23.5,,00.0,0632.7,30.9
2021-03-27T01:13:00Z,00000200,01000000,0002.50,0002.12,0001.15,0000.26,0000.27,0000.10,0001.19,0001.23,0001.09,16.7,23.5,,00.0,0632.7,30.9
2021-03-27T01:14:00Z,00000200,01000000,0002.78,0002.12,0001.06,0000.60,0000.44,0000.23,0001.91,0001.44,0001.21,16.7,23.5,,00.0,0632.7,30.9
2021-03-27T01:15:00Z,00000200,01000000,0002.88,0001.72,0000.93,0001.02,0000.37,0000.21,0001.48,0001.42,0000.68,16.8,23.6,,00.0,0632.7,30.9
2021-03-27T01:16:00Z,00000200,01000000,0003.17,0001.53,0001.16,0000.27,0000.53,-000.02,0001.34,0001.17,0001.39,16.7,23.6,,00.0,0632.7,30.9
2021-03-27T01:17:00Z,00000200,01000000,0003.13,0001.81,0001.30,0000.45,0000.24,0000.30,0001.29,0001.14,0000.98,16.8,23.6,,00.0,0632.7,30.9
2021-03-27T01:18:00Z,00000200,01000000,0002.90,0001.57,0000.92,0000.35,0000.40,0000.35,0001.77,0001.53,0001.16,16.7,23.5,,00.0,0632.7,30.9
2021-03-27T01:19:00Z,00000200,01000000,0002.84,0001.64,0001.11,0000.03,0000.05,0000.09,0001.52,0001.78,0001.36,16.7,23.5,,00.0,0632.8,30.9
2021-03-27T01:20:00Z,00000200,01000000,0002.57,0001.91,0001.20,0000.33,0000.48,0000.24,0001.61,0001.15,0001.06,16.7,23.5,,00.0,0632.8,30.9
2021-03-27T01:21:00Z,00000200,01000000,0002.57,0002.04,0000.70,0000.24,0000.50,0000.21,0001.27,0001.75,0000.92,16.8,23.5,,00.0,0632.8,30.9
2021-03-27T01:22:00Z,00000200,01000000,0002.59,0001.89,0001.08,0000.56,0000.25,0000.20,0001.81,0000.93,0001.50,16.8,23.6,,00.0,0632.7,30.9
2021-03-27T01:23:00Z,00000200,01000000,0002.93,0001.73,0000.99,0000.11,0000.17,0000.06,0001.30,0001.95,0000.89,16.8,23.6,,00.0,0632.7,30.9
2021-03-27T01:24:00Z,00000200,01000000,0002.84,0001.58,0001.06,0000.38,0000.36,0000.10,0001.63,0001.03,0001.15,16.9,23.6,,00.0,0632.7,30.9
2021-03-27T01:25:00Z,00000200,01000000,0002.51,0001.80,0001.01,0000.46,0000.33,0000.36,0001.55,0001.56,0000.99,16.9,23.6,,00.0,0632.7,30.9
2021-03-27T01:26:00Z,00000200,01000000,0002.57,0001.77,0001.05,0000.64,0000.28,0000.35,0001.25,0001.26,0001.27,16.9,23.6,,00.0,0632.7,30.9
2021-03-27T01:27:00Z,00000200,01000000,0002.80,0001.95,0001.08,0000.56,0000.17,0000.31,0001.51,0001.29,0001.07,16.9,23.6,,00.0,0632.8,30.9
2021-03-27T01:28:00Z,00000200,01000000,0002.41,0001.78,0001.01,0000.12,0000.27,0000.34,0001.14,0001.24,0001.22,16.9,23.7,,00.0,0632.8,30.9
2021-03-27T01:29:00Z,00000200,01000000,0002.74,0002.14,0001.05,0000.24,0000.45,0000.27,0001.63,0001.10,0000.52,16.9,23.6,,00.0,0632.7,30.9
2021-03-27T01:30:00Z,00000200,01000000,0003.26,0001.81,0001.00,0000.45,0000.12,0000.28,0001.01,0001.14,0000.55,16.8,23.6,,00.0,0632.7,30.9
2021-03-27T01:31:00Z,00000200,01000000,0002.63,0001.85,0000.90,0000.92,0000.50,-000.06,0001.31,0001.29,0001.03,16.7,23.6,,00.0,0632.7,30.9
2021-03-27T01:32:00Z,00000200,01000000,0003.04,0001.90,0001.21,0000.37,0000.08,0000.29,0001.23,0000.96,0001.16,16.6,23.5,,00.0,0632.7,30.8
2021-03-27T01:33:00Z,00000200,01000000,0002.72,0001.56,0001.02,0000.43,0000.31,0000.24,0001.62,0001.74,0001.11,16.5,23.5,,00.0,0632.8,30.8
2021-03-27T01:34:00Z,00000200,01000000,0002.85,0001.76,0001.05,0000.22,0000.14,0000.17,0001.60,0001.23,0001.14,16.5,23.4,,00.0,0632.8,30.8
2021-03-27T01:35:00Z,00000200,01000000,0003.15,0001.67,0001.43,0000.45,0000.22,0000.61,0001.22,0001.59,0001.13,16.6,23.4,,00.0,0632.8,30.8
2021-03-27T01:36:00Z,00000200,01000000,0002.90,0001.50,0000.90,0000.49,0000.36,0000.19,0001.21,0000.85,0000.98,16.6,23.4,,00.0,0632.8,30.8
2021-03-27T01:37:00Z,00000200,01000000,0002.63,0001.94,0001.04,0000.44,0000.58,0000.16,0001.89,0001.32,0000.92,16.6,23.4,,00.0,0632.8,30.9
2021-03-27T01:38:00Z,00000200,01000000,0002.90,0001.74,0001.22,0000.52,0000.21,0000.17,0001.26,0001.61,0001.15,16.6,23.4,,00.0,0632.8,30.9
2021-03-27T01:39:00Z,00000200,01000000,0002.48,0001.71,0001.03,0000.43,0000.31,0000.17,0001.31,0001.26,0001.31,16.7,23.5,,00.0,0632.8,30.9
2021-03-27T01:40:00Z,00000200,01000000,0002.61,0001.86,0001.17,0000.33,0000.21,0000.20,0001.24,0001.17,0000.56,16.7,23.5,,00.0,0632.8,30.9
2021-03-27T01:41:00Z,00000200,01000000,0002.88,0001.68,0000.84,0000.20,0000.28,0000.11,0001.27,0001.48,0001.29,16.7,23.5,,00.0,0632.8,30.9
2021-03-27T01:42:00Z,00000200,01000000,0003.07,0001.74,0001.20,0000.68,0000.48,0000.28,0001.61,0000.91,0000.91,16.7,23.5,,00.0,0632.8,30.9
2021-03-27T01:43:00Z,00000200,01000000,0002.90,0001.77,0000.88,0000.52,0000.29,-000.07,0001.49,0001.23,0000.95,16.8,23.5,,00.0,0632.9,30.9
2021-03-27T01:44:00Z,00000200,01000000,0002.55,0001.88,0001.18,0000.64,0000.29,0000.35,0001.32,0001.48,0001.06,16.8,23.5,,00.0,0632.9,30.9
2021-03-27T01:45:00Z,00000200,01000000,0002.58,0001.83,0001.04,0000.40,0000.39,0000.13,0001.12,0001.09,0001.09,16.8,23.6,,00.0,0632.8,30.9
2021-03-27T01:46:00Z,00000200,01000000,0002.45,0001.66,0001.02,-000.01,0000.07,0000.29,0001.35,0001.32,0001.15,16.9,23.6,,00.0,0632.9,30.9
2021-03-27T01:47:00Z,00000200,01000000,0002.56,0001.59,0000.91,0000.20,0000.41,0000.25,0001.68,0001.52,0000.99,16.9,23.6,,00.0,0632.9,30.9
2021-03-27T01:48:00Z,00000200,01000000,0003.17,0001.61,0000.97,0000.09,0000.59,0000.18,0001.28,0000.99,0000.80,16.9,23.6,,00.0,0632.9,30.9
2021-03-27T01:49:00Z,00000200,01000000,0003.21,0001.78,0001.00,0000.32,0000.67,0000.13,0001.65,0001.51,0001.00,16.9,23.6,,00.0,0633.0,30.9
2021-03-27T01:50:00Z,00000200,01000000,0002.84,0001.65,0000.80,0000.09,0000.28,0000.01,0001.12,0001.23,0000.81,16.9,23.6,,00.0,0632.9,30.9
2021-03-27T01:51:00Z,00000200,01000000,0002.24,0001.81,0001.10,0000.39,0000.25,0000.24,0001.34,0001.29,0001.36,16.9,23.6,,00.0,0633.0,30.9
2021-03-27T01:52:00Z,00000200,01000000,0003.42,0001.51,0001.12,0000.28,0000.28,0000.27,0000.97,0001.05,0000.65,17.0,23.6,,00.0,0633.0,30.9
2021-03-27T01:53:00Z,00000200,01000000,0002.74,0001.70,0001.05,0000.14,0000.17,0000.35,0001.50,0001.53,0001.08,17.0,23.6,,00.0,0633.0,30.9
2021-03-27T01:54:00Z,00000200,01000000,0002.66,0001.60,0001.02,0000.44,0000.26,0000.12,0001.44,0000.98,0000.97,17.0,23.7,,00.0,0633.0,30.9
2021-03-27T01:55:00Z,00000200,01000000,0002.65,0001.74,0000.97,0000.49,0000.05,0000.25,0001.11,0001.41,0000.90,17.0,23.7,,00.0,0633.0,30.9
2021-03-27T01:56:00Z,00000200,01000000,0002.55,0001.76,0000.80,0000.57,0000.36,0000.02,0001.58,0001.14,0001.26,17.1,23.7,,00.0,0633.0,30.9
2021-03-27T01:57:00Z,00000200,41000000,,,,,,,-000.02,0000.45,0000.14,17.1,23.8,,00.0,0633.1,30.9
2021-03-27T01:58:00Z,00000200,61000000,,,,,,,0000.33,-000.20,0000.27,16.8,23.9,,00.0,0632.1,30.9
2021-03-27T01:59:00Z,00000200,21000000,,,,,,,0000.18,0000.14,-000.48,16.8,24.0,,00.0,0632.0,30.9
